Location: Peebles
(55.6412°N, 3.1714°W)
Time: 11:53:27
(UTC+00:00)

CUTE-I - Pass Details

Date: 10 December 2023
Orbit: 807 x 823 km, 98.7° (Epoch: 24 February)

Event Time Altitude Azimuth Distance (km) Brightness Sun altitude
Rises 06:41:32 0° 17° (NNE) 3,367 ? -13.8°
Reaches altitude 10° 06:43:54 10° 19° (NNE) 2,432 ? -13.5°
Maximum altitude 06:49:17 72° 104° (ESE) 870 ? -12.8°
Drops below altitude 10° 06:54:39 10° 189° (S) 2,420 ? -12.1°
Sets 06:57:00 0° 192° (SSW) 3,349 ? -11.8°
